Wind_Speed
8 8 9 9 10 10 9 10 10 11 11 11 10 9 10 10 10 11 11 12 12 12 12 12 12 12 12 13 13 14 14 15 15 15 16 16 17 18 18 19 20 21 22 22 23 23 22 22 21 20 19 19 19 19 20 20 20 20 20 20 20 20 20 21 20 20 20 20 20
6 6 7 7 7 7 7 7 8 9 9 10 10 10 10 10 11 11 11 11 12 12 13 13 13 14 14 14 15 15 16 16 15 15 15 15 16 16 17 17 18 19 19 20 20 21 21 20 20 19 19 19 19 19 20 20 21 21 21 20 20 20 20 21 21 21 20 20 20
6 5 5 5 5 5 5 5 6 6 7 8 9 10 11 12 12 13 12 12 12 12 13 14 14 14 14 15 16 16 16 16 15 15 15 15 15 15 15 15 16 16 17 18 18 19 19 19 19 18 19 19 20 20 19 19 19 20 20 20 20 20 20 20 20 20 20 20 20
5 5 4 4 4 4 4 4 4 4 5 6 8 10 12 13 14 14 14 14 13 14 14 15 15 15 15 16 16 17 17 16 16 17 17 17 16 16 15 15 15 16 16 17 18 18 19 19 18 18 18 19 19 20 20 19 18 19 20 20 20 20 20 20 20 20 20 20 20
5 5 5 5 5 5 5 4 4 4 5 5 7 9 10 12 13 14 14 15 15 14 15 16 16 17 17 17 17 17 18 17 18 18 18 18 18 18 17 17 17 17 18 18 18 19 19 19 19 18 18 19 19 19 19 19 18 19 19 19 20 20 20 20 20 20 20 20 20
5 6 7 7 8 8 8 8 7 7 7 7 7 8 9 10 10 11 12 13 13 13 14 16 17 18 18 18 18 19 18 18 18 17 17 16 16 16 16 17 18 19 19 19 19 19 19 18 18 18 18 18 19 19 18 18 18 18 18 18 18 18 19 20 21 21 21 20 20
4 6 7 8 9 10 10 10 10 10 10 10 10 9 9 9 9 9 10 11 12 13 15 16 17 18 18 17 18 18 17 17 16 15 14 14 14 15 16 17 18 18 18 18 17 17 16 16 16 16 16 16 17 17 18 17 17 18 18 18 18 19 19 20 21 22 21 21 21
3 5 6 7 8 9 10 11 12 12 12 12 12 11 10 10 10 10 10 11 12 13 14 15 16 16 16 16 16 15 15 14 13 13 13 14 15 16 17 17 17 17 16 16 15 15 15 14 15 15 16 16 16 17 17 17 17 17 17 17 18 20 21 21 22 22 22 22 23
2 3 5 6 7 8 9 10 11 12 12 12 12 12 12 12 12 12 13 13 14 14 14 14 14 15 15 15 14 14 14 13 13 13 14 15 16 16 17 17 16 16 15 15 14 14 14 14 15 16 16 15 16 16 17 17 17 17 17 17 19 20 21 22 22 22 23 23 23
1 2 3 5 6 7 8 9 10 11 11 12 12 12 13 14 14 14 14 15 15 15 14 13 13 12 12 11 11 12 12 13 14 15 16 17 17 17 17 17 16 16 15 15 14 14 14 15 15 15 15 16 16 16 17 17 18 18 18 19 20 21 21 22 22 22 23 23 23
2 2 3 3 5 6 7 8 8 9 10 10 10 10 11 11 12 12 13 14 13 12 11 11 11 10 10 9 10 11 12 12 13 14 15 16 16 16 16 16 16 17 17 16 16 15 15 15 15 16 16 16 16 17 17 18 17 17 19 20 21 22 22 22 22 22 22 22 22
2 3 4 4 5 6 7 7 6 7 7 8 8 8 8 8 8 9 10 10 10 10 9 10 11 11 11 11 11 11 12 12 12 13 13 14 14 14 14 15 16 16 15 15 15 14 14 14 15 15 15 16 16 17 17 17 17 17 19 21 22 22 22 22 21 21 21 21 22
3 4 4 5 6 6 6 6 5 5 5 6 6 6 5 6 7 8 9 9 8 8 9 10 11 12 12 12 12 12 12 12 12 12 12 12 12 12 12 12 13 12 12 11 11 11 11 12 13 13 14 15 15 16 16 16 17 18 19 21 21 21 21 20 20 20 20 21 21
4 5 5 5 5 6 6 5 5 5 4 4 5 5 5 5 7 8 8 8 7 7 8 9 10 10 11 12 12 12 12 12 12 12 11 11 11 10 10 10 11 11 11 10 10 10 10 11 11 11 12 14 15 15 15 16 17 18 19 19 19 19 19 19 19 19 19 19 19
5 5 5 5 5 5 5 4 4 4 4 4 4 4 5 5 6 6 6 6 6 6 7 7 7 9 10 11 11 10 11 11 10 10 10 10 10 10 10 11 11 11 11 12 12 12 12 12 12 12 13 14 14 15 15 16 16 17 18 18 18 18 18 18 18 18 18 19 19
5 4 4 4 4 4 4 4 4 3 3 3 3 3 3 4 4 5 5 5 5 6 6 6 7 8 9 9 9 9 9 9 9 9 9 10 10 10 10 11 11 11 12 12 12 12 13 13 13 13 13 13 14 14 15 15 16 16 16 16 16 16 16 16 16 17 17 18 17
5 5 4 4 4 4 4 3 3 2 2 3 3 3 4 4 4 5 5 6 6 6 6 7 8 8 8 8 8 8 8 8 8 8 9 9 10 10 10 10 10 11 11 11 11 11 12 12 12 13 13 13 13 13 14 14 14 15 15 15 15 14 14 15 15 16 16 16 16
5 4 4 4 4 4 3 3 2 2 2 2 3 4 5 6 5 6 6 6 6 5 6 6 7 7 7 7 7 8 8 7 8 8 8 9 9 9 9 9 10 10 10 10 10 10 11 11 11 12 12 12 13 13 13 13 13 13 13 13 13 13 13 14 14 14 14 14 14
5 4 4 3 4 3 3 2 2 2 2 3 3 5 6 6 6 6 6 7 6 5 5 6 6 6 6 6 7 7 7 7 7 8 8 8 8 8 9 9 9 9 10 10 10 10 10 10 10 10 11 11 11 11 11 11 11 11 12 12 12 12 13 13 13 13 13 13 13
5 4 4 4 3 3 2 2 2 3 3 4 4 5 6 6 6 6 7 7 6 6 5 5 5 5 5 5 6 6 7 7 7 7 8 8 8 8 8 8 8 9 9 9 9 9 9 9 9 9 9 9 10 10 10 10 10 11 11 11 12 12 12 12 13 13 13 13 13
5 5 4 4 3 3 3 3 3 3 3 4 5 6 6 6 6 7 7 7 6 5 4 4 4 4 4 5 5 6 6 6 7 7 7 7 7 7 7 7 7 8 8 8 8 8 8 7 8 8 8 8 9 9 10 10 11 11 11 12 12 12 12 12 12 12 12 12 13
5 5 4 3 3 4 5 4 3 3 4 5 5 6 6 6 6 6 7 6 4 3 3 3 3 3 4 4 5 5 5 6 6 6 6 7 7 6 6 6 7 7 7 7 7 7 7 7 7 7 8 8 9 9 10 10 11 11 12 12 12 12 12 12 11 11 11 12 12
5 4 4 4 5 6 6 5 4 3 4 5 6 5 5 5 5 6 6 5 4 3 2 2 2 3 4 4 5 5 5 5 5 5 5 6 6 5 5 5 5 5 5 5 6 6 6 7 7 7 8 8 9 9 10 10 11 11 11 11 11 11 10 10 9 9 10 10 11
4 5 5 5 6 6 6 5 4 3 4 5 6 6 5 5 5 5 5 4 3 3 2 2 2 3 3 4 4 4 4 3 4 4 4 4 4 4 4 4 4 4 5 5 5 6 6 7 7 7 8 8 9 9 10 10 10 10 10 10 10 10 9 9 9 9 9 9 9
5 6 7 6 6 5 5 4 3 3 4 5 6 7 6 6 5 5 5 4 4 3 2 2 2 3 3 3 4 4 3 3 3 2 2 2 2 3 3 3 3 4 4 4 5 5 6 6 7 7 8 8 9 9 9 9 9 9 9 9 10 11 11 11 10 10 10 10 10
5 6 6 6 5 5 4 4 3 3 3 4 6 7 7 6 6 5 5 4 4 3 2 2 3 3 3 3 3 3 3 3 2 2 2 1 1 2 2 3 3 3 3 4 4 5 5 5 6 7 7 8 8 8 9 9 9 9 9 10 11 12 13 13 12 11 11 11 11
5 5 5 5 5 4 4 4 4 4 4 4 6 6 7 6 6 5 5 5 4 3 2 3 3 3 3 3 3 3 3 3 2 2 1 1 1 2 2 3 3 3 3 3 3 4 4 5 5 6 6 7 7 8 8 9 9 10 10 11 11 12 13 14 13 12 12 12 13
5 5 5 5 5 5 5 5 5 5 5 6 6 7 7 6 5 5 5 5 4 3 3 3 4 3 3 2 2 3 3 3 3 2 2 2 2 2 3 3 3 3 3 3 3 3 4 4 5 5 6 7 7 8 9 9 10 11 11 11 11 12 13 13 13 12 12 12 13
5 5 6 6 6 5 6 6 6 6 6 6 7 7 6 6 5 5 5 5 5 5 5 5 5 4 3 2 2 3 3 3 3 3 3 2 2 2 2 3 3 2 2 2 2 3 3 3 4 5 6 7 8 8 9 9 10 10 10 11 11 12 12 12 12 12 12 12 12
6 6 6 6 6 6 6 6 6 6 6 6 6 6 6 5 5 5 5 5 5 5 5 5 5 4 3 3 3 3 3 3 2 2 2 1 2 2 2 2 2 1 2 2 2 2 3 3 4 5 6 7 8 9 9 9 10 10 10 10 11 11 12 11 11 11 11 11 11
6 6 6 6 6 6 6 6 6 6 7 6 6 5 5 4 5 5 5 5 5 5 5 5 4 3 3 3 3 3 3 3 2 2 2 2 2 2 1 1 2 2 3 3 3 3 3 3 4 5 6 7 8 8 9 9 10 10 10 10 10 11 11 10 10 10 10 10 9
6 6 6 6 6 6 6 6 7 7 7 6 5 4 4 4 5 6 6 5 5 5 4 4 3 3 3 3 3 3 3 3 3 3 3 2 2 2 2 2 3 3 3 3 3 3 3 4 5 6 7 8 8 8 9 9 10 10 10 10 10 10 10 10 9 9 9 9 8
6 6 6 6 6 6 6 7 7 7 6 5 5 5 4 4 5 5 5 5 5 4 4 4 4 4 3 3 3 3 3 3 3 3 3 3 3 3 3 3 3 4 4 4 4 4 4 4 5 6 8 8 8 9 9 10 10 10 10 11 11 11 10 9 8 8 8 8 7
7 7 6 6 6 6 7 7 7 6 6 5 5 5 5 4 4 4 4 4 4 4 4 5 5 4 4 4 4 3 3 3 3 2 2 3 3 3 3 3 3 4 4 4 4 4 4 5 5 7 8 9 9 9 9 10 10 10 10 11 11 11 10 9 8 7 7 7 7
8 7 7 7 7 7 7 7 7 6 6 5 5 5 5 5 4 4 4 5 5 5 5 5 5 5 4 4 4 3 3 3 3 3 3 2 2 3 3 3 3 4 4 4 5 5 5 5 6 7 8 9 9 8 8 9 9 10 10 11 11 11 10 10 9 8 7 7 7
9 8 8 8 7 8 8 8 8 7 6 6 6 5 5 5 5 5 5 5 5 5 5 5 5 5 4 4 3 3 3 3 3 3 3 3 3 3 3 3 4 4 5 5 5 5 5 5 6 7 8 9 9 8 8 8 9 9 10 10 10 10 10 10 10 9 8 7 7
9 8 8 8 8 8 8 9 8 8 7 7 6 6 6 5 5 5 5 6 6 5 5 5 5 5 4 4 4 4 4 3 3 3 3 3 3 3 4 4 5 5 5 5 5 5 5 5 6 8 9 9 8 8 8 8 8 9 9 9 9 9 9 9 9 9 8 8 8
9 8 8 8 8 9 9 9 9 9 8 7 7 7 6 6 6 6 6 7 6 6 5 5 5 5 4 5 5 5 4 4 3 3 3 3 3 4 5 5 5 5 5 5 5 4 4 5 7 9 9 8 7 7 7 8 8 8 8 8 8 8 8 8 8 7 8 9 10
9 9 9 9 9 9 9 9 9 9 8 8 7 7 7 7 7 7 7 8 7 7 6 6 5 5 5 5 5 5 5 5 4 4 4 3 4 4 5 6 6 5 5 4 4 4 4 6 9 9 8 6 6 6 7 7 7 8 8 8 8 8 7 7 6 6 7 9 10
9 9 9 9 9 9 9 10 10 9 9 8 8 7 7 7 7 7 8 8 8 7 7 6 6 6 6 6 6 6 6 6 6 5 4 4 4 5 6 6 5 5 4 3 3 3 4 7 10 10 8 5 5 6 6 7 7 7 7 7 7 7 7 6 5 4 5 7 8
8 9 9 9 9 10 10 10 10 10 9 8 8 8 8 8 8 8 8 8 8 8 7 7 7 6 6 6 6 7 7 6 5 5 4 3 4 4 5 5 4 4 3 3 3 3 5 8 11 10 8 5 5 5 6 6 6 7 7 7 7 7 6 6 5 5 4 4 5
Wind_Direction
199 204 208 210 212 216 221 228 232 234 233 232 230 234 241 244 244 246 249 251 250 251 252 252 250 249 249 249 250 252 254 257 260 262 263 263 262 262 261 260 259 259 258 258 257 256 256 255 255 256 256 256 255 255 254 254 253 253 252 251 251 250 250 249 245 244 243 239 238
180 190 199 205 209 211 217 226 235 239 241 242 239 239 243 246 247 248 251 254 256 256 255 254 254 253 254 254 256 258 260 263 264 264 264 264 265 265 264 264 264 263 263 262 261 260 258 257 256 255 255 255 254 254 253 252 251 251 251 250 250 250 249 248 247 246 244 241 240
165 174 186 197 203 209 215 225 237 245 249 252 251 249 249 250 250 250 250 252 255 257 256 256 257 258 259 260 261 263 265 266 266 265 264 264 264 264 264 264 263 262 262 261 261 260 258 257 255 254 254 254 253 252 251 250 250 249 249 248 248 248 249 248 246 245 243 242 241
163 167 174 182 191 200 211 224 235 242 248 252 255 255 254 254 255 255 254 253 255 257 259 260 260 260 261 263 265 267 268 268 267 267 266 265 265 264 263 262 261 260 260 260 260 261 260 259 257 254 253 252 252 251 250 249 249 248 248 247 246 246 247 247 246 244 242 242 243
185 189 193 195 198 203 209 218 224 230 237 243 250 254 256 258 259 259 260 259 259 261 262 262 262 262 264 265 267 268 269 270 270 270 271 271 270 269 267 265 264 263 262 263 264 265 265 264 262 258 254 252 251 250 249 248 248 247 247 246 245 243 244 244 245 244 244 245 246
225 227 227 226 225 224 223 223 223 225 229 235 242 249 254 259 262 263 264 264 263 261 261 262 264 265 267 269 270 271 271 272 272 273 274 274 274 272 270 268 267 267 268 268 269 269 270 268 266 262 258 255 253 251 249 248 246 246 246 245 244 243 242 243 244 246 247 248 249
246 249 249 248 246 244 242 239 236 235 236 239 243 247 252 255 259 261 262 261 261 260 261 264 266 268 269 270 271 272 273 273 273 272 271 270 268 267 267 268 270 272 273 273 272 271 269 266 264 261 258 256 254 251 249 246 245 245 245 245 245 244 243 244 246 248 250 250 248
253 258 259 259 258 257 256 254 252 251 250 250 251 251 252 252 252 253 254 255 257 259 263 267 269 270 270 270 270 270 270 270 269 267 265 263 263 264 267 270 272 273 273 272 270 268 265 262 259 257 256 255 254 252 249 245 243 243 244 245 246 247 247 248 250 250 250 247 241
259 265 269 269 268 266 264 263 262 261 260 260 259 257 256 253 252 252 253 255 257 260 265 268 271 272 272 271 271 269 266 263 261 259 259 260 262 264 267 269 270 270 270 269 267 265 263 260 258 256 256 255 254 252 250 245 243 242 243 246 247 249 250 250 250 248 245 239 231
257 269 277 280 278 273 270 268 268 267 266 265 264 263 262 261 260 259 259 260 261 264 268 270 271 271 271 271 269 266 263 262 262 261 261 261 263 265 266 267 267 267 266 265 265 263 262 260 259 258 257 256 254 253 251 248 246 245 245 246 247 248 248 247 245 242 236 229 223
274 271 274 276 275 275 275 274 273 272 270 268 266 266 267 268 269 268 266 266 267 268 269 267 265 262 261 260 259 258 257 259 262 265 267 267 267 267 267 267 266 265 264 262 262 262 263 262 261 260 258 255 254 253 252 250 248 246 245 244 244 243 242 240 238 234 228 222 218
285 279 275 272 271 272 274 274 273 272 271 269 267 267 268 268 267 266 267 267 267 266 262 258 255 253 251 250 250 252 255 257 259 263 266 268 269 269 270 270 270 269 268 266 266 265 265 264 262 260 258 255 254 252 250 249 246 244 241 240 238 236 235 233 231 228 223 219 216
288 283 280 278 276 274 273 271 268 266 266 267 266 265 262 259 258 258 260 262 262 260 258 257 257 256 254 252 253 256 259 261 262 263 263 264 266 268 272 275 277 278 278 277 273 269 266 264 261 258 256 253 251 249 247 245 243 240 237 234 232 231 229 228 226 223 220 217 214
287 283 280 278 277 276 273 269 264 261 261 261 261 258 254 255 260 262 263 263 263 263 263 265 267 266 264 263 264 266 268 269 269 268 267 267 268 271 275 280 283 284 284 283 278 272 266 261 257 253 249 247 246 244 242 239 236 234 232 230 228 227 226 224 222 219 215 211 210
283 278 275 272 270 270 267 262 258 257 256 256 255 255 256 261 269 273 273 272 270 267 266 269 272 272 272 272 272 272 272 271 271 271 271 273 276 277 279 280 283 284 283 281 278 274 268 261 255 249 245 242 242 240 238 235 232 230 228 227 226 225 223 220 216 212 209 206 205
273 269 266 263 261 259 255 251 251 250 249 249 253 258 262 268 275 277 275 271 270 267 265 264 265 269 274 276 274 271 270 271 271 273 275 277 279 280 280 281 282 283 284 283 280 276 271 264 257 250 245 242 240 238 236 233 230 227 225 224 223 221 217 213 208 204 202 202 199
264 259 254 250 248 245 243 239 239 241 245 251 257 259 262 267 273 274 270 264 262 263 262 260 262 267 272 275 273 272 272 274 276 277 278 280 281 281 282 283 285 286 287 285 282 278 274 268 261 253 247 242 239 237 235 231 227 223 221 219 216 213 209 205 200 197 195 194 193
256 250 245 241 241 238 235 233 235 246 254 259 263 262 265 274 280 281 277 270 261 259 262 264 267 270 272 274 274 274 274 276 278 279 280 281 282 284 286 287 289 289 288 285 281 277 273 269 263 255 248 242 238 235 231 226 221 217 213 210 207 203 200 196 193 191 189 186 184
250 244 238 238 239 237 234 235 243 252 260 259 261 264 270 278 283 285 282 275 266 262 264 269 273 274 275 276 278 278 279 279 280 280 282 284 287 289 291 290 289 288 286 283 279 275 271 265 259 252 246 239 233 228 222 216 210 206 202 199 195 192 190 187 185 184 182 179 176
248 245 242 241 239 237 236 243 252 260 265 263 264 267 270 275 279 278 275 272 268 267 268 271 275 278 281 284 285 286 287 286 286 286 287 290 292 292 291 289 287 284 281 278 274 269 263 257 250 244 237 230 223 215 208 202 197 192 189 186 183 181 180 179 179 177 175 173 171
246 243 242 239 232 229 235 248 265 280 283 279 277 275 276 278 278 275 270 267 265 267 270 275 282 288 293 294 293 294 294 293 292 291 292 293 293 292 290 287 284 280 276 271 265 258 251 243 235 229 221 215 207 200 194 189 184 180 177 175 174 173 174 174 174 173 171 171 170
241 236 231 226 227 236 246 260 274 285 287 289 289 287 282 278 277 274 271 264 257 254 260 274 287 294 297 297 296 296 296 295 294 294 294 294 291 288 286 283 279 274 267 261 253 244 234 224 215 209 202 195 190 186 183 179 175 172 169 168 168 168 169 171 172 172 172 172 173
230 219 216 224 240 254 263 270 273 272 277 287 294 293 285 278 279 279 275 263 248 239 244 266 285 293 296 297 298 297 297 295 294 293 292 289 286 282 279 274 268 260 251 245 239 230 219 208 199 193 188 182 178 174 173 171 169 166 164 163 163 163 164 166 167 169 170 171 171
212 212 223 238 253 265 271 270 259 254 265 281 291 293 287 278 280 281 277 260 245 235 238 262 286 294 296 299 300 299 295 292 288 286 285 284 283 281 275 264 254 243 236 232 226 219 211 202 192 185 180 176 172 168 166 164 163 163 161 158 156 154 153 151 151 152 153 156 159
212 226 241 252 257 260 259 250 235 234 253 274 287 290 286 280 277 274 266 252 243 238 244 263 281 290 291 294 298 298 292 280 274 269 268 271 280 281 273 261 246 237 232 226 216 208 203 200 192 184 178 174 170 166 163 161 159 158 155 151 146 142 138 135 134 136 139 143 147
220 240 253 257 252 243 232 224 218 224 245 266 276 279 277 273 269 262 251 240 238 242 254 273 278 278 277 278 286 285 281 269 262 256 253 246 246 259 262 258 251 243 232 219 207 200 197 196 193 187 181 174 168 162 156 152 150 146 141 137 134 130 127 124 123 126 132 138 142
229 246 252 247 236 222 213 216 222 231 243 255 264 265 263 260 254 243 231 223 223 232 252 265 268 262 259 257 259 258 256 252 247 243 244 245 240 247 254 256 253 245 232 217 207 203 203 201 198 193 187 179 170 160 150 143 138 134 130 126 125 124 122 119 119 121 124 129 130
233 238 235 228 213 206 209 219 228 238 246 254 258 258 255 247 237 224 215 210 209 215 229 242 246 245 240 235 233 231 230 231 231 230 234 245 250 255 257 255 249 244 234 222 217 216 216 214 207 201 192 182 171 159 149 141 136 132 128 126 126 125 123 121 121 122 123 125 125
228 228 222 213 204 204 212 223 230 238 244 249 253 252 246 235 225 218 214 210 210 214 222 231 234 229 218 208 205 207 208 212 222 232 237 241 244 244 246 243 238 232 224 215 215 222 225 220 212 202 192 182 169 158 150 145 141 137 135 134 134 132 129 128 128 128 129 129 128
222 219 214 209 208 212 218 225 229 235 241 245 247 244 235 225 217 213 211 210 215 220 225 229 226 214 200 193 191 192 191 191 198 209 217 214 216 219 223 218 201 174 160 170 189 205 211 208 203 196 187 177 165 157 151 149 146 143 140 140 139 137 135 133 133 133 133 133 131
216 213 212 211 213 218 222 226 231 235 239 240 236 229 220 214 210 208 207 209 215 223 226 222 211 199 193 191 187 183 178 167 156 150 147 153 151 149 148 150 147 143 146 161 173 183 190 193 192 186 178 168 158 153 150 148 146 143 141 140 140 138 136 134 134 134 135 134 132
208 209 211 211 214 219 226 231 236 237 235 228 219 207 199 204 211 214 215 215 218 221 217 203 189 182 178 173 168 162 155 145 138 137 138 140 139 140 143 148 151 151 154 163 169 174 180 185 185 177 167 156 150 148 148 145 143 141 140 140 138 135 132 130 131 133 134 134 133
203 207 209 210 213 220 230 236 239 236 227 215 203 195 193 200 211 216 216 214 213 206 193 181 173 167 162 153 147 142 139 138 138 141 143 143 145 147 150 154 159 160 160 164 169 173 178 182 179 171 162 156 153 152 151 148 144 142 141 139 135 131 126 125 128 132 134 135 134
200 204 207 210 214 223 232 237 235 228 216 205 197 194 194 197 203 205 204 203 197 189 180 175 170 164 159 156 151 144 139 138 139 142 145 147 153 155 158 159 163 166 167 168 172 174 177 180 178 172 166 161 157 154 152 150 146 144 141 138 134 130 127 125 127 130 133 134 134
201 204 207 211 218 225 231 231 224 213 202 197 194 193 192 192 191 191 191 189 184 179 176 173 169 164 159 156 151 146 142 141 143 143 142 144 152 157 160 162 167 169 170 171 174 176 179 184 181 175 167 159 151 145 143 143 141 140 139 138 136 135 133 132 130 128 127 127 128
206 208 210 215 220 225 226 222 212 202 195 194 192 190 188 186 184 184 185 182 178 174 172 170 167 164 160 157 156 154 152 151 153 152 148 148 155 158 158 159 164 166 167 170 175 180 185 189 182 170 157 145 136 132 133 134 134 134 135 136 138 139 139 136 132 128 123 120 121
213 214 215 218 220 222 221 217 207 199 194 194 192 188 183 180 179 182 184 181 177 174 172 169 166 164 163 163 163 164 164 164 167 162 157 156 161 162 159 158 161 163 165 171 178 186 193 190 173 155 142 130 127 127 129 129 130 131 131 132 136 140 141 138 135 132 129 128 128
215 216 216 217 218 219 218 213 205 198 195 194 192 187 182 178 179 184 186 183 179 176 175 171 167 164 165 167 167 168 170 171 170 162 157 158 160 160 158 157 159 162 167 174 184 194 197 182 157 143 132 126 130 133 133 132 131 131 131 131 134 137 139 137 138 142 147 148 144
216 216 215 215 215 216 214 210 204 199 196 194 190 186 182 182 184 189 190 186 184 182 179 174 169 168 168 169 167 166 166 164 159 153 151 151 152 152 154 155 156 159 167 178 193 204 193 168 149 138 133 134 138 139 137 136 135 134 134 134 133 135 135 135 138 150 163 166 160
213 212 212 211 212 213 212 208 204 201 198 193 189 186 185 185 189 193 193 188 186 185 183 179 175 174 173 169 166 165 166 165 163 160 158 154 148 147 149 153 155 158 164 177 197 204 183 161 149 140 134 139 143 142 140 139 138 137 136 136 135 135 135 136 138 147 164 175 175
207 207 206 207 209 211 210 207 204 201 197 192 188 187 187 190 193 194 192 188 186 186 186 184 182 181 178 175 173 174 175 177 179 181 181 177 164 155 151 152 159 164 168 174 184 187 174 163 154 146 139 139 142 143 142 141 140 140 140 139 138 138 138 138 137 140 147 163 177
Height
797 798 798 799 799 800 801 802 802 803 804 805 805 806 806 806 807 807 807 808 808 809 809 809 810 810 810 810 810 811 811 811 811 812 811 811 811 811 811 811 811 811 811 811 812 812 812 812 813 813 813 813 813 813 814 814 815 815 815 815 815 815 815 816 816 816 816 816 816
797 797 797 798 799 800 800 801 802 802 803 804 804 805 805 805 806 806 807 807 807 807 808 808 808 809 809 809 809 810 810 810 810 810 810 810 810 810 810 810 810 810 810 810 810 810 810 811 811 811 811 811 812 812 812 812 813 813 813 814 814 814 814 814 814 815 815 815 815
796 797 797 798 799 799 800 801 801 802 803 803 803 804 804 804 805 805 805 806 806 806 806 807 807 807 808 808 808 808 809 809 809 809 809 809 809 809 809 809 809 809 808 808 808 809 809 809 810 810 810 810 810 810 810 810 811 811 811 812 812 812 812 812 812 813 813 813 813
796 796 797 798 798 799 800 800 801 802 802 802 802 803 803 803 804 804 805 805 805 805 805 805 806 806 806 807 807 807 807 807 808 808 808 807 808 808 808 807 807 807 807 807 807 807 807 807 808 808 808 808 808 808 808 809 809 810 810 810 810 810 810 810 810 811 811 811 812
795 795 796 797 798 798 799 800 800 801 802 802 802 802 802 803 803 803 804 804 804 805 805 805 805 805 805 805 806 806 806 806 806 806 806 806 806 806 806 806 806 806 806 806 806 805 806 806 806 806 806 806 806 806 806 807 807 808 808 808 808 808 809 809 809 809 810 810 810
795 795 795 796 797 797 798 799 800 800 801 801 801 802 802 802 802 803 803 803 803 804 804 803 804 804 804 805 805 805 805 805 805 805 805 805 805 805 805 805 805 805 804 804 804 804 804 804 804 804 804 804 805 805 805 805 806 806 806 806 806 806 807 807 807 808 808 809 809
795 795 795 796 796 797 797 798 798 799 799 800 800 801 801 801 802 802 802 802 802 802 802 802 803 803 803 803 803 804 804 804 804 804 804 804 803 803 803 803 803 803 803 803 803 803 803 803 803 803 803 803 803 803 803 804 804 805 805 805 805 805 805 805 806 806 807 807 808
795 795 795 796 796 796 797 797 797 798 798 799 799 800 800 800 801 801 801 801 801 801 801 801 801 802 802 802 802 802 803 803 803 803 802 802 802 802 802 802 802 802 802 802 802 802 802 802 801 801 801 801 801 801 802 802 803 803 803 803 803 803 803 804 804 805 805 806 806
795 795 795 795 795 796 796 796 796 797 797 798 798 798 799 799 799 800 800 800 800 800 800 800 800 801 801 801 801 801 801 801 801 801 801 800 800 800 800 800 800 800 801 801 801 801 800 800 800 800 800 800 800 800 800 801 801 801 801 802 801 801 802 802 803 804 804 804 804
795 795 795 795 795 795 795 795 796 796 796 797 797 797 798 798 798 798 798 799 799 799 799 800 800 800 800 800 800 800 800 800 799 799 799 799 799 799 799 799 799 799 799 799 799 799 799 799 799 799 799 799 799 799 799 799 800 800 800 800 800 800 800 801 801 802 802 802 802
794 795 795 795 795 795 795 795 795 795 796 796 796 797 797 797 797 797 797 797 798 798 799 799 799 799 799 799 799 799 798 798 798 798 798 797 797 797 797 797 797 797 797 797 798 798 798 797 797 797 797 797 797 797 797 798 798 798 799 798 799 799 799 800 800 800 800 800 801
794 794 794 794 794 794 794 795 795 795 795 796 796 796 796 797 797 797 797 797 797 798 798 798 797 797 797 797 797 797 797 797 797 797 797 796 796 796 796 796 795 796 796 796 796 796 796 796 796 795 795 795 795 795 796 796 796 797 797 797 797 797 798 798 798 799 799 799 800
793 793 793 793 793 793 794 794 795 795 795 795 795 796 796 796 796 796 796 796 797 797 796 796 796 796 796 796 796 796 796 795 795 795 795 795 795 795 795 795 795 795 795 795 795 795 795 795 794 794 794 794 794 794 794 795 795 796 796 796 796 796 796 797 797 797 798 798 799
792 792 793 793 793 793 793 794 794 794 795 795 795 795 795 795 795 795 795 795 796 796 795 795 795 795 795 795 795 795 795 795 795 795 794 794 794 794 794 794 794 794 794 794 794 794 794 793 793 793 793 793 793 793 794 794 794 795 795 795 795 795 795 795 796 796 797 797 798
792 792 792 792 792 793 793 793 794 794 794 794 795 795 795 795 795 795 795 795 795 795 795 795 795 794 794 794 794 794 794 794 794 794 794 794 793 793 793 793 793 793 793 793 793 793 793 793 793 792 792 792 792 792 793 793 793 793 794 794 794 794 795 795 795 795 796 796 797
791 792 792 792 792 792 793 793 793 793 794 794 794 794 794 794 794 794 794 794 794 794 794 794 794 794 793 793 793 793 793 793 793 793 793 793 793 793 792 792 792 792 792 792 792 792 792 792 792 792 792 792 792 792 792 792 792 792 792 793 793 794 794 794 795 795 795 796 796
791 791 791 792 792 792 792 793 793 793 793 793 794 794 794 794 794 794 793 793 794 794 793 793 793 793 793 793 793 793 793 793 793 793 792 792 792 792 792 792 792 791 791 791 791 791 791 791 791 791 791 791 791 791 791 791 791 792 792 792 792 793 793 794 794 795 795 796 796
791 791 791 791 792 792 792 792 793 793 793 793 793 793 793 793 793 793 793 793 793 793 793 792 792 792 792 792 792 792 792 792 792 792 792 792 791 791 791 791 791 791 791 791 791 791 791 791 791 791 791 791 791 791 791 791 791 791 791 792 792 793 793 794 794 795 795 796 796
791 791 791 791 791 792 792 792 792 792 792 792 792 792 792 792 792 792 792 792 792 792 792 792 792 792 792 792 792 792 792 792 791 791 791 791 791 791 791 791 791 790 790 790 791 791 791 791 791 790 790 790 790 791 791 791 791 791 791 792 792 793 793 794 794 795 795 796 796
790 791 791 791 791 791 791 791 791 791 792 792 792 791 791 792 792 792 792 792 791 791 792 791 791 791 791 791 791 791 791 791 791 791 791 791 791 790 790 790 790 790 790 790 790 790 790 790 790 790 790 790 790 790 791 791 791 791 791 792 792 792 793 794 794 795 795 796 796
790 790 791 791 791 791 791 791 791 791 791 791 791 791 791 791 791 791 791 791 791 791 791 791 791 791 791 791 791 791 791 791 791 791 790 790 790 790 790 790 790 790 790 790 790 790 790 790 790 790 790 790 790 791 791 791 791 791 791 792 792 792 793 793 794 795 795 796 796
789 790 790 790 790 790 790 790 791 791 791 791 791 791 791 791 791 791 791 791 791 791 791 791 791 791 791 791 791 791 791 790 790 790 790 790 790 790 790 789 789 789 789 790 790 790 790 790 790 790 790 790 791 791 791 791 791 791 791 792 792 792 793 794 794 795 795 796 797
789 789 790 790 790 790 790 790 791 791 791 791 791 791 791 791 791 791 791 791 791 791 791 791 791 791 791 791 790 790 790 790 790 790 790 790 790 790 790 790 790 790 790 790 790 790 790 790 790 791 791 791 791 791 791 791 791 791 792 792 792 793 793 794 794 795 796 797 797
788 789 789 789 789 789 790 790 790 791 791 791 791 791 791 791 791 791 791 791 791 791 791 791 791 791 791 790 790 790 790 790 790 790 790 790 790 790 790 790 790 790 790 790 790 790 791 791 791 791 791 791 791 791 791 791 792 792 792 792 793 793 794 794 795 795 796 797 798
788 788 788 789 789 789 790 790 790 791 791 791 790 790 790 790 790 791 791 791 791 791 791 791 791 790 790 790 790 790 790 790 790 790 790 790 790 790 790 790 790 790 790 790 791 791 791 791 791 791 791 791 791 791 792 792 792 792 793 793 793 794 794 794 795 796 797 798 798
787 788 788 788 789 789 790 790 790 790 790 790 790 790 790 790 790 790 791 791 791 791 791 790 790 790 790 790 790 790 790 790 790 790 790 790 790 790 790 790 790 790 791 791 791 791 791 792 792 792 792 792 792 792 792 793 793 793 794 794 794 794 794 795 795 796 798 798 799
787 788 788 788 789 789 790 790 790 790 790 790 790 790 790 790 790 790 790 791 791 791 791 791 791 791 790 790 790 790 790 790 790 790 790 790 790 790 790 790 791 791 791 791 791 792 792 792 792 792 792 792 792 793 793 793 794 794 794 795 795 795 795 795 796 797 798 799 800
787 788 788 788 789 789 789 790 790 790 790 790 790 790 790 790 790 790 790 791 791 791 791 791 791 791 791 791 791 790 790 790 790 791 791 791 791 791 791 791 791 791 791 792 792 792 792 792 792 793 793 793 793 793 793 794 794 794 795 795 795 796 796 797 798 799 799 800 800
787 787 788 788 789 789 789 789 789 790 790 790 790 790 790 790 790 790 790 791 791 791 791 791 791 791 791 791 791 791 791 791 791 791 791 791 791 791 791 791 791 791 791 792 792 792 792 793 793 793 793 793 793 793 794 794 794 795 795 795 796 796 797 797 798 799 800 800 801
787 787 788 788 788 789 789 789 789 789 789 790 790 790 790 790 790 790 790 791 791 791 791 791 791 791 791 791 791 791 791 791 791 791 791 791 791 791 791 791 791 791 792 792 792 792 792 793 793 793 793 793 793 794 794 794 795 795 795 795 796 797 797 798 799 800 800 801 801
787 787 787 788 788 788 788 789 789 789 789 789 789 790 790 790 790 790 790 791 791 791 791 791 791 791 791 791 791 791 791 791 791 791 791 791 791 791 791 791 791 792 792 792 792 792 793 793 793 793 793 794 794 794 794 795 795 795 795 796 797 797 798 799 799 800 800 801 801
786 787 787 787 788 788 788 788 789 789 789 789 789 790 790 790 790 790 790 790 790 791 791 791 791 791 791 791 791 791 791 791 791 791 792 792 791 791 792 792 792 792 792 793 793 793 793 793 793 793 793 794 794 794 795 795 795 795 796 796 797 798 798 799 800 800 801 801 802
786 786 787 787 787 788 788 788 788 789 789 789 789 790 790 790 790 790 790 790 790 791 791 791 791 791 791 791 791 791 791 791 792 792 792 792 792 792 792 792 792 792 793 793 793 793 793 793 793 793 794 794 794 794 795 795 795 796 796 797 797 798 799 800 800 801 801 802 803
786 786 787 787 787 787 788 788 788 789 789 789 789 790 790 790 790 790 790 790 790 791 791 791 791 791 791 791 791 791 791 792 792 792 792 792 792 792 792 792 792 793 793 793 793 793 793 793 793 793 793 794 794 794 795 795 796 796 796 797 798 798 799 800 800 801 802 802 803
786 786 786 786 787 787 787 788 788 788 789 789 789 789 789 789 790 790 790 790 790 791 791 791 791 791 791 791 791 791 792 792 792 792 792 792 792 792 792 792 793 793 793 793 793 793 793 793 793 793 794 794 795 795 795 796 796 797 797 797 798 799 799 800 800 801 802 803 803
785 785 786 786 786 787 787 787 788 788 789 789 789 789 789 789 789 790 790 790 790 791 791 791 791 791 791 791 791 792 792 792 792 792 792 792 792 792 792 793 793 793 793 793 793 793 793 793 793 793 794 795 795 795 796 796 797 797 798 798 798 799 799 800 800 801 802 802 803
784 785 785 786 786 786 787 787 787 788 788 788 789 789 789 789 789 790 790 790 790 791 791 791 791 791 791 791 791 792 792 792 792 792 793 793 793 793 793 793 793 793 793 793 793 793 793 793 793 794 795 795 796 796 797 797 797 798 798 799 799 799 800 800 801 801 802 802 803
784 784 785 785 786 786 786 787 787 788 788 788 788 789 789 789 789 789 790 790 790 791 791 791 791 791 791 791 791 792 792 792 793 793 793 793 793 793 793 793 793 793 793 793 793 793 793 794 794 795 795 796 796 797 797 798 798 798 799 799 799 800 800 800 801 801 801 802 802
783 784 784 785 785 786 786 786 787 787 788 788 788 788 789 789 789 789 789 790 790 791 791 791 791 791 791 791 792 792 792 792 792 793 793 793 793 793 793 793 793 793 793 794 794 794 794 794 794 795 796 796 797 797 798 798 798 799 799 799 800 800 800 801 801 801 801 802 803
783 783 784 784 785 785 786 786 786 787 787 788 788 788 788 788 789 789 789 790 790 790 791 791 791 791 791 791 792 792 792 792 792 792 793 793 793 793 793 793 793 793 794 794 794 794 794 794 795 795 796 797 797 798 798 798 798 799 799 799 800 800 800 801 801 801 802 802 803
782 783 783 783 784 784 785 786 786 786 787 787 788 788 788 788 788 789 789 789 790 790 790 791 791 791 791 791 791 791 792 792 792 793 793 793 793 793 793 793 794 794 794 794 794 794 794 795 795 795 796 797 797 798 798 798 799 799 799 799 800 800 800 801 801 802 802 803 803